| time (UTC) | temp F | wind direction | speed knots | gust knots | rain 1hr in | rain 24hr in | rain mn in | humidity % | barometer mb |
| 20260903073508 | 70 | 190 | 2.6 | 4.3 | 0.00 | 0.00 | 0.00 | 65 | 1021.8 |
| 20260903072508 | 69 | 170 | 2.6 | 5.2 | 0.00 | 0.00 | 0.00 | 68 | 1021.9 |
| 20260903071122 | 69 | 180 | 2.6 | 5.2 | 0.00 | 0.00 | 0.00 | 68 | 1021.8 |
| 20260903070509 | 67 | 160 | 4.3 | 5.2 | 0.00 | 0.00 | 0.00 | 68 | 1022.0 |
| 20260903065509 | 66 | 160 | 2.6 | 5.2 | 0.00 | 0.00 | 0.00 | 69 | 1022.0 |
| 20260903064121 | 65 | 180 | 1.7 | 2.6 | 0.00 | 0.00 | 0.00 | 74 | 1022.2 |
| 20260903063508 | 64 | 190 | 1.7 | 2.6 | 0.00 | 0.00 | 0.00 | 77 | 1022.4 |
| 20260903062509 | 63 | 190 | 1.7 | 4.3 | 0.00 | 0.00 | 0.00 | 79 | 1022.5 |
| 20260903061122 | 62 | 180 | 2.6 | 4.3 | 0.00 | 0.00 | 0.00 | 80 | 1022.5 |
| 20260903060509 | 62 | 180 | 2.6 | 2.6 | 0.00 | 0.00 | 0.00 | 81 | 1022.4 |
| 20260903055508 | 61 | 170 | 1.7 | 2.6 | 0.00 | 0.00 | 0.00 | 82 | 1022.4 |
| 20260903054121 | 61 | 190 | 1.7 | 2.6 | 0.00 | 0.00 | 0.00 | 83 | 1022.4 |
| 20260903053508 | 60 | 200 | 1.7 | 2.6 | 0.00 | 0.00 | 0.00 | 83 | 1022.5 |
| 20260903052509 | 60 | 170 | 1.7 | 2.6 | 0.00 | 0.00 | 0.00 | 84 | 1022.4 |
| 20260903051122 | 59 | 170 | 2.6 | 2.6 | 0.00 | 0.00 | 0.00 | 86 | 1022.4 |
| 20260903050508 | 59 | 170 | 2.6 | 4.3 | 0.00 | 0.00 | 0.00 | 85 | 1022.3 |
| 20260903045509 | 59 | 170 | 2.6 | 5.2 | 0.00 | 0.00 | 0.00 | 85 | 1022.4 |
| 20260903044121 | 59 | 160 | 4.3 | 6.1 | 0.00 | 0.00 | 0.00 | 85 | 1022.3 |
| 20260903043508 | 59 | 170 | 5.2 | 6.1 | 0.00 | 0.00 | 0.00 | 86 | 1022.3 |
| 20260903042509 | 59 | 180 | 4.3 | 5.2 | 0.00 | 0.00 | 0.00 | 85 | 1022.2 |
| 20260903041121 | 59 | 170 | 1.7 | 4.3 | 0.00 | 0.00 | 0.00 | 85 | 1022.2 |
| 20260903040509 | 59 | 160 | 2.6 | 6.1 | 0.00 | 0.00 | 0.00 | 86 | 1022.2 |
| 20260903035509 | 58 | 170 | 4.3 | 6.1 | 0.00 | 0.00 | 0.00 | 88 | 1022.2 |
| 20260903034508 | 59 | 160 | 1.7 | 4.3 | 0.00 | 0.00 | 0.00 | 85 | 1022.1 |
| 20260903033508 | 60 | 170 | 2.6 | 4.3 | 0.00 | 0.00 | 0.00 | 83 | 1022.0 |
| 20260903032509 | 60 | 160 | 2.6 | 4.3 | 0.00 | 0.00 | 0.00 | 83 | 1022.1 |
| 20260903031122 | 60 | 160 | 2.6 | 4.3 | 0.00 | 0.00 | 0.00 | 83 | 1022.0 |
| 20260903030509 | 61 | 170 | 2.6 | 4.3 | 0.00 | 0.00 | 0.00 | 81 | 1021.9 |
| 20260903025509 | 60 | 160 | 2.6 | 5.2 | 0.00 | 0.00 | 0.00 | 82 | 1022.0 |
| 20260903024509 | 60 | 170 | 4.3 | 5.2 | 0.00 | 0.00 | 0.00 | 83 | 1022.0 |
| 20260903023509 | 61 | 200 | 1.7 | 5.2 | 0.00 | 0.00 | 0.00 | 80 | 1021.9 |
| 20260903022509 | 62 | 150 | 1.7 | 5.2 | 0.00 | 0.00 | 0.00 | 78 | 1021.7 |
| 20260903021122 | 63 | 100 | 2.6 | 5.2 | 0.00 | 0.00 | 0.00 | 76 | 1021.5 |
| 20260903020509 | 63 | 80 | 1.7 | 2.6 | 0.00 | 0.00 | 0.00 | 76 | 1021.5 |
| 20260903015509 | 62 | 120 | 1.7 | 4.3 | 0.00 | 0.00 | 0.00 | 77 | 1021.4 |
| 20260903014121 | 63 | 130 | 2.6 | 4.3 | 0.00 | 0.00 | 0.00 | 76 | 1021.4 |
| 20260903013508 | 62 | 360 | 0.9 | 6.1 | 0.00 | 0.00 | 0.00 | 79 | 1021.4 |
| 20260903012508 | 63 | 150 | 2.6 | 7.0 | 0.00 | 0.00 | 0.00 | 76 | 1021.2 |
| 20260903011122 | 63 | 160 | 5.2 | 9.6 | 0.00 | 0.00 | 0.00 | 78 | 1021.2 |
| 20260903010509 | 63 | 160 | 7.0 | 9.6 | 0.00 | 0.00 | 0.00 | 76 | 1021.1 |
| 20260903005509 | 63 | 170 | 5.2 | 7.8 | 0.00 | 0.00 | 0.00 | 76 | 1021.1 |
| 20260903004122 | 63 | 190 | 4.3 | 5.2 | 0.00 | 0.00 | 0.00 | 76 | 1021.0 |
| 20260903003509 | 63 | 190 | 2.6 | 6.1 | 0.00 | 0.00 | 0.00 | 77 | 1021.2 |
| 20260903002509 | 62 | 170 | 5.2 | 6.1 | 0.00 | 0.00 | 0.00 | 81 | 1021.1 |
| 20260903001521 | 61 | 170 | 5.2 | 6.1 | 0.00 | 0.00 | 0.00 | 82 | 1021.2 |
| 20260903000508 | 61 | 160 | 4.3 | 6.1 | 0.00 | 0.00 | 0.00 | 81 | 1021.2 |
| 20260902235508 | 60 | 170 | 5.2 | 6.1 | 0.00 | 0.00 | 0.00 | 84 | 1021.4 |
| 20260902234122 | 60 | 180 | 5.2 | 7.0 | 0.00 | 0.00 | 0.00 | 84 | 1021.4 |
| 20260902233508 | 59 | 160 | 6.1 | 7.0 | 0.00 | 0.00 | 0.00 | 86 | 1021.6 |
| 20260902232508 | 60 | 170 | 6.1 | 7.0 | 0.00 | 0.00 | 0.00 | 86 | 1021.6 |
| 20260902231509 | 59 | 180 | 5.2 | 7.8 | 0.00 | 0.00 | 0.00 | 87 | 1021.7 |
| 20260902230509 | 60 | 170 | 6.1 | 7.8 | 0.00 | 0.00 | 0.00 | 86 | 1021.6 |
| 20260902225509 | 61 | 170 | 7.0 | 7.8 | 0.00 | 0.00 | 0.00 | 83 | 1021.5 |
| 20260902224122 | 62 | 170 | 5.2 | 6.1 | 0.00 | 0.00 | 0.00 | 79 | 1021.4 |
| 20260902223509 | 60 | 170 | 5.2 | 6.1 | 0.00 | 0.00 | 0.00 | 85 | 1021.6 |
| 20260902222509 | 60 | 160 | 2.6 | 5.2 | 0.00 | 0.00 | 0.00 | 85 | 1021.4 |
| 20260902221122 | 61 | 160 | 4.3 | 5.2 | 0.00 | 0.00 | 0.00 | 84 | 1021.4 |
| 20260902220508 | 61 | 160 | 4.3 | 5.2 | 0.00 | 0.00 | 0.00 | 83 | 1021.2 |
| 20260902215509 | 60 | 190 | 2.6 | 4.3 | 0.00 | 0.00 | 0.00 | 85 | 1021.4 |
| 20260902214122 | 62 | 180 | 2.6 | 4.3 | 0.00 | 0.00 | 0.00 | 83 | 1021.2 |
| 20260902213508 | 61 | 210 | 1.7 | 4.3 | 0.00 | 0.00 | 0.00 | 84 | 1021.1 |
| 20260902211122 | 64 | 180 | 4.3 | 5.2 | 0.00 | 0.00 | 0.00 | 77 | 1020.7 |
| 20260902210509 | 65 | 160 | 4.3 | 6.1 | 0.00 | 0.00 | 0.00 | 74 | 1020.5 |
| 20260902205509 | 65 | 190 | 4.3 | 6.1 | 0.00 | 0.00 | 0.00 | 74 | 1020.4 |
| 20260902204123 | 66 | 150 | 4.3 | 5.2 | 0.00 | 0.00 | 0.00 | 72 | 1020.5 |
| 20260902203508 | 65 | 170 | 1.7 | 2.6 | 0.00 | 0.00 | 0.00 | 75 | 1020.4 |
| 20260902202509 | 65 | 190 | 2.6 | 4.3 | 0.00 | 0.00 | 0.00 | 78 | 1020.4 |
| 20260902201122 | 65 | 170 | 2.6 | 6.1 | 0.00 | 0.00 | 0.00 | 77 | 1020.4 |
| 20260902200509 | 65 | 160 | 4.3 | 6.1 | 0.00 | 0.00 | 0.00 | 77 | 1020.4 |
| 20260902195509 | 66 | 170 | 5.2 | 6.1 | 0.00 | 0.00 | 0.00 | 74 | 1020.2 |
| 20260902194122 | 66 | 160 | 5.2 | 6.1 | 0.00 | 0.00 | 0.00 | 75 | 1020.3 |
| 20260902193509 | 65 | 160 | 4.3 | 6.1 | 0.00 | 0.00 | 0.00 | 76 | 1020.2 |
| 20260902192508 | 66 | 220 | 2.6 | 4.3 | 0.00 | 0.00 | 0.00 | 74 | 1020.2 |
| 20260902191122 | 67 | 200 | 2.6 | 5.2 | 0.00 | 0.00 | 0.00 | 71 | 1020.0 |
| 20260902190508 | 67 | 160 | 4.3 | 5.2 | 0.00 | 0.00 | 0.00 | 72 | 1019.9 |
| 20260902185509 | 67 | 180 | 2.6 | 5.2 | 0.00 | 0.00 | 0.00 | 72 | 1019.7 |
| 20260902184122 | 67 | 320 | 1.7 | 2.6 | 0.00 | 0.00 | 0.00 | 74 | 1019.8 |
| 20260902183509 | 68 | 310 | 1.7 | 2.6 | 0.00 | 0.00 | 0.00 | 70 | 1019.5 |
| 20260902182509 | 70 | 260 | 1.7 | 4.3 | 0.00 | 0.00 | 0.00 | 63 | 1019.1 |
| 20260902181122 | 71 | 280 | 2.6 | 5.2 | 0.00 | 0.00 | 0.00 | 63 | 1019.1 |
| 20260902180509 | 72 | 340 | 2.6 | 5.2 | 0.00 | 0.00 | 0.00 | 54 | 1018.9 |
| 20260902175509 | 71 | 340 | 2.6 | 4.3 | 0.00 | 0.00 | 0.00 | 58 | 1018.7 |
| 20260902174122 | 72 | 320 | 2.6 | 4.3 | 0.00 | 0.00 | 0.00 | 58 | 1018.6 |
| 20260902173508 | 73 | 310 | 1.7 | 2.6 | 0.00 | 0.00 | 0.00 | 55 | 1018.5 |
| 20260902172509 | 73 | 340 | 1.7 | 2.6 | 0.00 | 0.00 | 0.00 | 55 | 1018.4 |
| 20260902171122 | 74 | 20 | 1.7 | 4.3 | 0.00 | 0.00 | 0.00 | 51 | 1018.3 |
| 20260902170509 | 75 | 40 | 1.7 | 5.2 | 0.00 | 0.00 | 0.00 | 49 | 1018.1 |
| 20260902165509 | 75 | 20 | 2.6 | 5.2 | 0.00 | 0.00 | 0.00 | 49 | 1018.2 |
| 20260902164122 | 75 | 340 | 2.6 | 6.1 | 0.00 | 0.00 | 0.00 | 50 | 1018.0 |
| 20260902163509 | 76 | 350 | 4.3 | 7.0 | 0.00 | 0.00 | 0.00 | 48 | 1018.0 |
| 20260902162509 | 76 | 350 | 2.6 | 8.7 | 0.00 | 0.00 | 0.00 | 49 | 1018.0 |
| 20260902161122 | 76 | 10 | 5.2 | 8.7 | 0.00 | 0.00 | 0.00 | 48 | 1018.1 |
| 20260902160508 | 76 | 360 | 5.2 | 9.6 | 0.00 | 0.00 | 0.00 | 50 | 1018.1 |
| 20260902155509 | 77 | 340 | 6.1 | 11.3 | 0.00 | 0.00 | 0.00 | 50 | 1018.1 |
| 20260902154122 | 76 | 350 | 5.2 | 13.0 | 0.00 | 0.00 | 0.00 | 48 | 1018.2 |
| 20260902153509 | 76 | 360 | 7.0 | 13.0 | 0.00 | 0.00 | 0.00 | 48 | 1018.3 |
| 20260902152508 | 76 | 340 | 4.3 | 11.3 | 0.00 | 0.00 | 0.00 | 48 | 1018.1 |
| 20260902151122 | 77 | 310 | 7.8 | 11.3 | 0.00 | 0.00 | 0.00 | 49 | 1018.2 |
| 20260902150509 | 77 | 330 | 6.1 | 12.2 | 0.00 | 0.00 | 0.00 | 49 | 1018.2 |
| 20260902145509 | 77 | 340 | 6.1 | 12.2 | 0.00 | 0.00 | 0.00 | 49 | 1018.3 |
| 20260902144122 | 77 | 310 | 5.2 | 7.8 | 0.00 | 0.00 | 0.00 | 47 | 1018.3 |
| 20260902143508 | 77 | 20 | 4.3 | 7.8 | 0.00 | 0.00 | 0.00 | 48 | 1018.4 |
| 20260902142509 | 77 | 40 | 5.2 | 8.7 | 0.00 | 0.00 | 0.00 | 47 | 1018.5 |
| 20260902141122 | 76 | 10 | 5.2 | 8.7 | 0.00 | 0.00 | 0.00 | 49 | 1018.6 |
| 20260902140509 | 76 | 350 | 5.2 | 13.0 | 0.00 | 0.00 | 0.00 | 48 | 1018.6 |
| 20260902135509 | 76 | 10 | 7.0 | 13.0 | 0.00 | 0.00 | 0.00 | 48 | 1018.6 |
| 20260902134120 | 77 | 330 | 7.0 | 9.6 | 0.00 | 0.00 | 0.00 | 48 | 1018.5 |
| 20260902133509 | 77 | 340 | 6.1 | 11.3 | 0.00 | 0.00 | 0.00 | 48 | 1018.7 |
| 20260902132509 | 76 | 320 | 7.0 | 11.3 | 0.00 | 0.00 | 0.00 | 49 | 1018.9 |
| 20260902131122 | 76 | 310 | 7.8 | 12.2 | 0.00 | 0.00 | 0.00 | 48 | 1018.8 |
| 20260902130509 | 76 | 330 | 7.0 | 12.2 | 0.00 | 0.00 | 0.00 | 45 | 1019.0 |
| 20260902125509 | 76 | 320 | 6.1 | 9.6 | 0.00 | 0.00 | 0.00 | 46 | 1019.0 |
| 20260902124121 | 76 | 320 | 6.1 | 9.6 | 0.00 | 0.00 | 0.00 | 46 | 1018.9 |
| 20260902123509 | 76 | 320 | 5.2 | 9.6 | 0.00 | 0.00 | 0.00 | 44 | 1019.0 |
| 20260902122509 | 76 | 330 | 6.1 | 11.3 | 0.00 | 0.00 | 0.00 | 50 | 1019.1 |
| 20260902121122 | 75 | 320 | 7.0 | 11.3 | 0.00 | 0.00 | 0.00 | 50 | 1019.3 |
| 20260902120508 | 75 | 350 | 5.2 | 8.7 | 0.00 | 0.00 | 0.00 | 49 | 1019.4 |
| 20260902115508 | 75 | 20 | 4.3 | 8.7 | 0.00 | 0.00 | 0.00 | 51 | 1019.3 |
| 20260902114122 | 76 | 350 | 5.2 | 8.7 | 0.00 | 0.00 | 0.00 | 46 | 1019.3 |
| 20260902113509 | 76 | 320 | 4.3 | 8.7 | 0.00 | 0.00 | 0.00 | 46 | 1019.4 |
| 20260902112509 | 75 | 330 | 6.1 | 8.7 | 0.00 | 0.00 | 0.00 | 50 | 1019.4 |
| 20260902111122 | 75 | 330 | 6.1 | 8.7 | 0.00 | 0.00 | 0.00 | 49 | 1019.6 |
| 20260902110509 | 74 | 320 | 6.1 | 7.8 | 0.00 | 0.00 | 0.00 | 50 | 1019.6 |
| 20260902105508 | 74 | 330 | 5.2 | 7.8 | 0.00 | 0.00 | 0.00 | 50 | 1019.8 |
| 20260902104122 | 74 | 330 | 5.2 | 7.8 | 0.00 | 0.00 | 0.00 | 53 | 1019.8 |
| 20260902103509 | 74 | 340 | 4.3 | 7.8 | 0.00 | 0.00 | 0.00 | 53 | 1020.0 |
| 20260902102508 | 74 | 320 | 4.3 | 7.8 | 0.00 | 0.00 | 0.00 | 54 | 1020.0 |
| 20260902101122 | 73 | 340 | 4.3 | 7.8 | 0.00 | 0.00 | 0.00 | 54 | 1020.1 |
| 20260902100509 | 73 | 300 | 2.6 | 5.2 | 0.00 | 0.00 | 0.00 | 54 | 1020.3 |
| 20260902095509 | 73 | 280 | 2.6 | 6.1 | 0.00 | 0.00 | 0.00 | 52 | 1020.3 |
| 20260902094122 | 73 | 270 | 2.6 | 6.1 | 0.00 | 0.00 | 0.00 | 53 | 1020.4 |
| 20260902093509 | 73 | 250 | 2.6 | 7.0 | 0.00 | 0.00 | 0.00 | 54 | 1020.5 |
| 20260902092508 | 72 | 290 | 4.3 | 7.0 | 0.00 | 0.00 | 0.00 | 56 | 1020.7 |
| 20260902091121 | 72 | 270 | 1.7 | 6.1 | 0.00 | 0.00 | 0.00 | 57 | 1020.7 |
| 20260902090509 | 72 | 330 | 1.7 | 5.2 | 0.00 | 0.00 | 0.00 | 58 | 1020.7 |
| 20260902084121 | 71 | 120 | 1.7 | 2.6 | 0.00 | 0.00 | 0.00 | 55 | 1020.8 |
| 20260902083509 | 69 | 360 | 0.9 | 2.6 | 0.00 | 0.00 | 0.00 | 59 | 1020.9 |
| 20260902082509 | 70 | 360 | 0.9 | 4.3 | 0.00 | 0.00 | 0.00 | 59 | 1021.0 |
| 20260902081121 | 69 | 200 | 1.7 | 5.2 | 0.00 | 0.00 | 0.00 | 60 | 1021.1 |
| 20260902080508 | 69 | 180 | 2.6 | 6.1 | 0.00 | 0.00 | 0.00 | 63 | 1021.1 |
| 20260902075509 | 67 | 180 | 2.6 | 6.1 | 0.00 | 0.00 | 0.00 | 65 | 1021.2 |
| 20260902074122 | 67 | 180 | 4.3 | 7.0 | 0.00 | 0.00 | 0.00 | 68 | 1021.1 |